| time (UTC) | temp C | wind direction | speed KPH | gust KPH | rain 1hr cm | rain 24hr cm | rain mn cm | humidity % | barometer mb |
| 20260502234213 | 23 | 286 | 3.2 | 4.8 | 0.00 | 0.00 | 0.00 | 25 | 1015.1 |
| 20260502233708 | 23 | 102 | 3.2 | 6.4 | 0.00 | 0.00 | 0.00 | 26 | 1015.0 |
| 20260502233205 | 23 | 15 | 4.8 | 8.0 | 0.00 | 0.00 | 0.00 | 26 | 1015.1 |
| 20260502232701 | 23 | 6 | 4.8 | 11.3 | 0.00 | 0.00 | 0.00 | 27 | 1015.1 |
| 20260502232159 | 23 | 10 | 4.8 | 8.0 | 0.00 | 0.00 | 0.00 | 26 | 1015.2 |
| 20260502231655 | 22 | 74 | 4.8 | 11.3 | 0.00 | 0.00 | 0.00 | 27 | 1015.1 |
| 20260502231153 | 23 | 272 | 9.7 | 9.7 | 0.00 | 0.00 | 0.00 | 25 | 1015.2 |
| 20260502230652 | 23 | 210 | 3.2 | 8.0 | 0.00 | 0.00 | 0.00 | 24 | 1015.2 |
| 20260502230150 | 23 | 288 | 14.5 | 17.7 | 0.00 | 0.00 | 0.00 | 26 | 1015.6 |
| 20260502225645 | 23 | 10 | 4.8 | 11.3 | 0.00 | 0.00 | 0.00 | 25 | 1015.5 |
| 20260502225143 | 22 | 331 | 3.2 | 9.7 | 0.00 | 0.00 | 0.00 | 26 | 1015.5 |
| 20260502224638 | 22 | 260 | 0.0 | 11.3 | 0.00 | 0.00 | 0.00 | 26 | 1015.7 |
| 20260502224135 | 22 | 285 | 8.0 | 16.1 | 0.00 | 0.00 | 0.00 | 26 | 1015.6 |
| 20260502223633 | 23 | 263 | 8.0 | 12.9 | 0.00 | 0.00 | 0.00 | 27 | 1015.7 |
| 20260502223131 | 23 | 261 | 8.0 | 9.7 | 0.00 | 0.00 | 0.00 | 26 | 1015.8 |
| 20260502222628 | 23 | 338 | 6.4 | 8.0 | 0.00 | 0.00 | 0.00 | 24 | 1015.9 |
| 20260502222125 | 23 | 333 | 6.4 | 8.0 | 0.00 | 0.00 | 0.00 | 25 | 1015.9 |
| 20260502221620 | 23 | 285 | 0.0 | 4.8 | 0.00 | 0.00 | 0.00 | 25 | 1015.9 |
| 20260502221118 | 22 | 330 | 4.8 | 11.3 | 0.00 | 0.00 | 0.00 | 26 | 1016.1 |
| 20260502220614 | 22 | 0 | 4.8 | 9.7 | 0.00 | 0.00 | 0.00 | 25 | 1015.9 |
| 20260502220110 | 22 | 319 | 3.2 | 9.7 | 0.00 | 0.00 | 0.00 | 26 | 1016.2 |
| 20260502215607 | 22 | 17 | 0.0 | 8.0 | 0.00 | 0.00 | 0.00 | 24 | 1016.2 |
| 20260502215104 | 22 | 0 | 3.2 | 12.9 | 0.00 | 0.00 | 0.00 | 25 | 1016.4 |
| 20260502214601 | 22 | 244 | 11.3 | 12.9 | 0.00 | 0.00 | 0.00 | 26 | 1016.4 |
| 20260502214058 | 22 | 270 | 3.2 | 6.4 | 0.00 | 0.00 | 0.00 | 26 | 1016.4 |
| 20260502213555 | 21 | 287 | 6.4 | 11.3 | 0.00 | 0.00 | 0.00 | 29 | 1016.5 |
| 20260502213053 | 21 | 307 | 8.0 | 8.0 | 0.00 | 0.00 | 0.00 | 26 | 1016.7 |
| 20260502212552 | 22 | 277 | 4.8 | 9.7 | 0.00 | 0.00 | 0.00 | 27 | 1016.8 |
| 20260502212049 | 21 | 282 | 0.0 | 8.0 | 0.00 | 0.00 | 0.00 | 26 | 1016.8 |
| 20260502211545 | 22 | 329 | 8.0 | 11.3 | 0.00 | 0.00 | 0.00 | 27 | 1016.9 |
| 20260502211042 | 21 | 71 | 1.6 | 6.4 | 0.00 | 0.00 | 0.00 | 26 | 1016.9 |
| 20260502210539 | 22 | 96 | 0.0 | 9.7 | 0.00 | 0.00 | 0.00 | 23 | 1016.8 |
| 20260502210036 | 21 | 8 | 6.4 | 12.9 | 0.00 | 0.00 | 0.00 | 25 | 1016.8 |
| 20260502205533 | 21 | 297 | 4.8 | 8.0 | 0.00 | 0.00 | 0.00 | 23 | 1017.0 |
| 20260502205030 | 21 | 260 | 0.0 | 8.0 | 0.00 | 0.00 | 0.00 | 23 | 1017.0 |
| 20260502204526 | 21 | 261 | 3.2 | 8.0 | 0.00 | 0.00 | 0.00 | 25 | 1017.1 |
| 20260502204025 | 21 | 340 | 1.6 | 11.3 | 0.00 | 0.00 | 0.00 | 23 | 1017.2 |
| 20260502203521 | 21 | 264 | 8.0 | 12.9 | 0.00 | 0.00 | 0.00 | 26 | 1017.1 |
| 20260502203018 | 21 | 270 | 4.8 | 11.3 | 0.00 | 0.00 | 0.00 | 24 | 1017.2 |
| 20260502202514 | 21 | 270 | 4.8 | 4.8 | 0.00 | 0.00 | 0.00 | 27 | 1017.6 |
| 20260502202013 | 21 | 315 | 8.0 | 8.0 | 0.00 | 0.00 | 0.00 | 25 | 1017.4 |
| 20260502201509 | 21 | 0 | 3.2 | 6.4 | 0.00 | 0.00 | 0.00 | 33 | 1017.1 |
| 20260502201005 | 21 | 84 | 0.0 | 4.8 | 0.00 | 0.00 | 0.00 | 34 | 1017.4 |
| 20260502200501 | 20 | 112 | 0.0 | 8.0 | 0.00 | 0.00 | 0.00 | 33 | 1017.6 |
| 20260502195959 | 20 | 311 | 4.8 | 8.0 | 0.00 | 0.00 | 0.00 | 34 | 1017.8 |
| 20260502195456 | 20 | 160 | 1.6 | 3.2 | 0.00 | 0.00 | 0.00 | 35 | 1017.6 |
| 20260502194952 | 19 | 282 | 3.2 | 6.4 | 0.00 | 0.00 | 0.00 | 39 | 1017.6 |
| 20260502194449 | 20 | 279 | 3.2 | 4.8 | 0.00 | 0.00 | 0.00 | 40 | 1017.6 |
| 20260502193944 | 19 | 0 | 0.0 | 3.2 | 0.00 | 0.00 | 0.00 | 39 | 1017.8 |
| 20260502193442 | 19 | 320 | 4.8 | 8.0 | 0.00 | 0.00 | 0.00 | 37 | 1018.0 |
| 20260502192937 | 18 | 85 | 4.8 | 4.8 | 0.00 | 0.00 | 0.00 | 41 | 1018.0 |
| 20260502192435 | 18 | 248 | 4.8 | 8.0 | 0.00 | 0.00 | 0.00 | 40 | 1018.0 |
| 20260502191931 | 18 | 291 | 4.8 | 6.4 | 0.00 | 0.00 | 0.00 | 42 | 1018.2 |
| 20260502191429 | 18 | 270 | 8.0 | 8.0 | 0.00 | 0.00 | 0.00 | 43 | 1018.1 |
| 20260502190927 | 17 | 248 | 6.4 | 8.0 | 0.00 | 0.00 | 0.00 | 43 | 1018.5 |
| 20260502190424 | 17 | 278 | 6.4 | 9.7 | 0.00 | 0.00 | 0.00 | 40 | 1018.5 |
| 20260502185920 | 17 | 0 | 4.8 | 8.0 | 0.00 | 0.00 | 0.00 | 40 | 1018.5 |
| 20260502185415 | 17 | 47 | 4.8 | 4.8 | 0.00 | 0.00 | 0.00 | 43 | 1018.6 |
| 20260502184913 | 17 | 255 | 3.2 | 6.4 | 0.00 | 0.00 | 0.00 | 40 | 1018.6 |
| 20260502184408 | 16 | 326 | 3.2 | 8.0 | 0.00 | 0.00 | 0.00 | 43 | 1018.7 |
| 20260502183905 | 16 | 263 | 4.8 | 6.4 | 0.00 | 0.00 | 0.00 | 41 | 1019.0 |
| 20260502183401 | 16 | 209 | 3.2 | 4.8 | 0.00 | 0.00 | 0.00 | 41 | 1019.2 |
| 20260502182856 | 15 | 10 | 4.8 | 6.4 | 0.00 | 0.00 | 0.00 | 43 | 1019.1 |
| 20260502182352 | 16 | 255 | 4.8 | 6.4 | 0.00 | 0.00 | 0.00 | 42 | 1019.1 |
| 20260502181849 | 15 | 327 | 4.8 | 6.4 | 0.00 | 0.00 | 0.00 | 42 | 1019.1 |
| 20260502181348 | 15 | 335 | 8.0 | 9.7 | 0.00 | 0.00 | 0.00 | 45 | 1018.9 |
| 20260502180845 | 15 | 32 | 4.8 | 11.3 | 0.00 | 0.00 | 0.00 | 45 | 1019.5 |
| 20260502180342 | 15 | 270 | 0.0 | 6.4 | 0.00 | 0.00 | 0.00 | 43 | 1019.2 |
| 20260502170301 | 12 | 346 | 0.0 | 4.8 | 0.00 | 0.00 | 0.00 | 50 | 1019.8 |
| 20260502164243 | 12 | 257 | 3.2 | 6.4 | 0.00 | 0.00 | 0.00 | 53 | 1019.9 |
| 20260502163738 | 11 | 90 | 4.8 | 6.4 | 0.00 | 0.00 | 0.00 | 51 | 1020.1 |
| 20260502163235 | 11 | 352 | 3.2 | 8.0 | 0.00 | 0.00 | 0.00 | 53 | 1019.9 |
| 20260502162732 | 11 | 338 | 4.8 | 8.0 | 0.00 | 0.00 | 0.00 | 53 | 1020.2 |
| 20260502162229 | 11 | 37 | 4.8 | 6.4 | 0.00 | 0.00 | 0.00 | 53 | 1020.0 |
| 20260502161726 | 11 | 353 | 1.6 | 8.0 | 0.00 | 0.00 | 0.00 | 53 | 1019.9 |
| 20260502161222 | 11 | 182 | 6.4 | 6.4 | 0.00 | 0.00 | 0.00 | 53 | 1020.2 |
| 20260502160721 | 11 | 289 | 0.0 | 4.8 | 0.00 | 0.00 | 0.00 | 55 | 1020.2 |
| 20260502160219 | 10 | 294 | 0.0 | 4.8 | 0.00 | 0.00 | 0.00 | 57 | 1020.2 |
| 20260502152143 | 10 | 342 | 1.6 | 3.2 | 0.00 | 0.00 | 0.00 | 59 | 1020.5 |
| 20260502151641 | 8 | 270 | 0.0 | 3.2 | 0.00 | 0.00 | 0.00 | 63 | 1020.3 |
| 20260502151138 | 8 | 21 | 0.0 | 3.2 | 0.00 | 0.00 | 0.00 | 62 | 1020.2 |
| 20260502150635 | 8 | 346 | 0.0 | 4.8 | 0.00 | 0.00 | 0.00 | 65 | 1020.6 |
| 20260502150131 | 8 | 174 | 0.0 | 4.8 | 0.00 | 0.00 | 0.00 | 64 | 1020.5 |
| 20260502130520 | 5 | 71 | 1.6 | 3.2 | 0.00 | 0.00 | 0.00 | 74 | 1020.3 |
| 20260502123503 | 5 | 106 | 6.4 | 8.0 | 0.00 | 0.00 | 0.00 | 73 | 1020.0 |
| 20260502123000 | 5 | 74 | 3.2 | 8.0 | 0.00 | 0.00 | 0.00 | 72 | 1020.0 |
| 20260502122456 | 5 | 97 | 6.4 | 8.0 | 0.00 | 0.00 | 0.00 | 72 | 1019.8 |
| 20260502121954 | 5 | 97 | 6.4 | 9.7 | 0.00 | 0.00 | 0.00 | 72 | 1019.9 |
| 20260502121451 | 5 | 101 | 4.8 | 8.0 | 0.00 | 0.00 | 0.00 | 71 | 1020.0 |
| 20260502120948 | 5 | 87 | 4.8 | 9.7 | 0.00 | 0.00 | 0.00 | 70 | 1019.8 |
| 20260502120444 | 5 | 110 | 6.4 | 9.7 | 0.00 | 0.00 | 0.00 | 71 | 1019.6 |
| 20260502115439 | 5 | 115 | 6.4 | 8.0 | 0.00 | 0.00 | 0.00 | 73 | 1019.8 |
| 20260502114935 | 4 | 113 | 6.4 | 8.0 | 0.00 | 0.00 | 0.00 | 74 | 1019.8 |
| 20260502114432 | 5 | 108 | 4.8 | 6.4 | 0.00 | 0.00 | 0.00 | 74 | 1019.9 |
| 20260502113929 | 4 | 109 | 3.2 | 4.8 | 0.00 | 0.00 | 0.00 | 75 | 1019.8 |
| 20260502113427 | 5 | 103 | 4.8 | 4.8 | 0.00 | 0.00 | 0.00 | 74 | 1019.9 |
| 20260502112925 | 5 | 71 | 4.8 | 6.4 | 0.00 | 0.00 | 0.00 | 73 | 1019.9 |
| 20260502112422 | 5 | 109 | 3.2 | 4.8 | 0.00 | 0.00 | 0.00 | 73 | 1019.9 |
| 20260502111920 | 5 | 118 | 4.8 | 6.4 | 0.00 | 0.00 | 0.00 | 72 | 1019.7 |
| 20260502111416 | 5 | 108 | 6.4 | 6.4 | 0.00 | 0.00 | 0.00 | 71 | 1019.8 |
| 20260502110914 | 5 | 103 | 4.8 | 4.8 | 0.00 | 0.00 | 0.00 | 71 | 1019.7 |
| 20260502110412 | 5 | 123 | 3.2 | 3.2 | 0.00 | 0.00 | 0.00 | 70 | 1019.7 |
| 20260502105909 | 6 | 105 | 0.0 | 3.2 | 0.00 | 0.00 | 0.00 | 68 | 1019.7 |
| 20260502105406 | 6 | 151 | 0.0 | 3.2 | 0.00 | 0.00 | 0.00 | 67 | 1019.6 |
| 20260502104904 | 7 | 90 | 1.6 | 6.4 | 0.00 | 0.00 | 0.00 | 64 | 1019.7 |
| 20260502104401 | 7 | 106 | 3.2 | 4.8 | 0.00 | 0.00 | 0.00 | 61 | 1019.6 |
| 20260502103858 | 7 | 45 | 3.2 | 8.0 | 0.00 | 0.00 | 0.00 | 64 | 1019.3 |
| 20260502103356 | 7 | 105 | 4.8 | 8.0 | 0.00 | 0.00 | 0.00 | 64 | 1019.6 |
| 20260502102852 | 7 | 101 | 4.8 | 8.0 | 0.00 | 0.00 | 0.00 | 64 | 1019.2 |
| 20260502102349 | 7 | 115 | 6.4 | 11.3 | 0.00 | 0.00 | 0.00 | 65 | 1019.6 |
| 20260502101846 | 7 | 101 | 11.3 | 11.3 | 0.00 | 0.00 | 0.00 | 66 | 1019.1 |
| 20260502101345 | 6 | 106 | 8.0 | 12.9 | 0.00 | 0.00 | 0.00 | 67 | 1019.5 |
| 20260502100843 | 6 | 123 | 6.4 | 11.3 | 0.00 | 0.00 | 0.00 | 68 | 1019.3 |
| 20260502100342 | 6 | 105 | 8.0 | 12.9 | 0.00 | 0.00 | 0.00 | 68 | 1019.1 |
| 20260502091315 | 7 | 127 | 3.2 | 3.2 | 0.00 | 0.00 | 0.00 | 65 | 1019.2 |
| 20260502090813 | 7 | 103 | 4.8 | 8.0 | 0.00 | 0.00 | 0.00 | 63 | 1019.0 |
| 20260502090309 | 7 | 110 | 6.4 | 6.4 | 0.00 | 0.00 | 0.00 | 65 | 1019.3 |
| 20260502071205 | 8 | 97 | 4.8 | 4.8 | 0.00 | 0.00 | 0.00 | 61 | 1018.8 |
| 20260502070703 | 8 | 115 | 3.2 | 4.8 | 0.00 | 0.00 | 0.00 | 61 | 1018.8 |
| 20260502070200 | 9 | 119 | 3.2 | 4.8 | 0.00 | 0.00 | 0.00 | 58 | 1018.8 |
| 20260502065659 | 9 | 97 | 4.8 | 4.8 | 0.00 | 0.00 | 0.00 | 58 | 1018.8 |
| 20260502065156 | 9 | 90 | 3.2 | 3.2 | 0.00 | 0.00 | 0.00 | 57 | 1018.7 |
| 20260502064655 | 9 | 86 | 4.8 | 4.8 | 0.00 | 0.00 | 0.00 | 57 | 1018.5 |
| 20260502064151 | 10 | 135 | 3.2 | 4.8 | 0.00 | 0.00 | 0.00 | 57 | 1018.7 |
| 20260502063649 | 9 | 103 | 3.2 | 4.8 | 0.00 | 0.00 | 0.00 | 59 | 1018.6 |
| 20260502063147 | 9 | 93 | 4.8 | 6.4 | 0.00 | 0.00 | 0.00 | 59 | 1018.1 |
| 20260502062643 | 10 | 99 | 4.8 | 4.8 | 0.00 | 0.00 | 0.00 | 58 | 1018.5 |
| 20260502062141 | 9 | 115 | 3.2 | 4.8 | 0.00 | 0.00 | 0.00 | 60 | 1018.3 |
| 20260502061639 | 10 | 130 | 4.8 | 4.8 | 0.00 | 0.00 | 0.00 | 57 | 1018.6 |
| 20260502061137 | 10 | 99 | 4.8 | 6.4 | 0.00 | 0.00 | 0.00 | 55 | 1018.1 |
| 20260502060636 | 10 | 139 | 3.2 | 4.8 | 0.00 | 0.00 | 0.00 | 57 | 1018.1 |
| 20260502060133 | 10 | 108 | 4.8 | 6.4 | 0.00 | 0.00 | 0.00 | 55 | 1017.9 |
| 20260502055631 | 10 | 93 | 4.8 | 11.3 | 0.00 | 0.00 | 0.00 | 53 | 1018.1 |
| 20260502055129 | 11 | 115 | 4.8 | 12.9 | 0.00 | 0.00 | 0.00 | 52 | 1018.2 |
| 20260502054628 | 10 | 90 | 6.4 | 9.7 | 0.00 | 0.00 | 0.00 | 53 | 1018.0 |
| 20260502054125 | 10 | 77 | 4.8 | 8.0 | 0.00 | 0.00 | 0.00 | 53 | 1017.8 |
| 20260502053622 | 10 | 105 | 6.4 | 8.0 | 0.00 | 0.00 | 0.00 | 53 | 1018.1 |
| 20260502053119 | 10 | 97 | 4.8 | 6.4 | 0.00 | 0.00 | 0.00 | 54 | 1018.0 |
| 20260502052617 | 10 | 117 | 1.6 | 4.8 | 0.00 | 0.00 | 0.00 | 56 | 1017.9 |
| 20260502052115 | 11 | 104 | 4.8 | 4.8 | 0.00 | 0.00 | 0.00 | 52 | 1018.0 |
| 20260502051613 | 11 | 77 | 4.8 | 8.0 | 0.00 | 0.00 | 0.00 | 50 | 1017.9 |
| 20260502051111 | 11 | 103 | 6.4 | 6.4 | 0.00 | 0.00 | 0.00 | 52 | 1017.9 |
| 20260502050607 | 11 | 94 | 4.8 | 6.4 | 0.00 | 0.00 | 0.00 | 49 | 1017.7 |
| 20260502050104 | 11 | 145 | 1.6 | 3.2 | 0.00 | 0.00 | 0.00 | 50 | 1017.9 |
| 20260502045600 | 11 | 132 | 3.2 | 4.8 | 0.00 | 0.00 | 0.00 | 51 | 1017.7 |
| 20260502045058 | 11 | 113 | 4.8 | 6.4 | 0.00 | 0.00 | 0.00 | 49 | 1017.7 |
| 20260502044554 | 11 | 127 | 4.8 | 6.4 | 0.00 | 0.00 | 0.00 | 49 | 1017.7 |
| 20260502044051 | 11 | 113 | 4.8 | 6.4 | 0.00 | 0.00 | 0.00 | 48 | 1017.8 |
| 20260502043548 | 12 | 106 | 3.2 | 6.4 | 0.00 | 0.00 | 0.00 | 47 | 1017.8 |
| 20260502043044 | 12 | 134 | 6.4 | 8.0 | 0.00 | 0.00 | 0.00 | 48 | 1017.7 |
| 20260502042539 | 12 | 96 | 8.0 | 12.9 | 0.00 | 0.00 | 0.00 | 45 | 1017.6 |
| 20260502042037 | 12 | 102 | 12.9 | 14.5 | 0.00 | 0.00 | 0.00 | 45 | 1017.4 |
| 20260502041535 | 12 | 106 | 8.0 | 11.3 | 0.00 | 0.00 | 0.00 | 46 | 1017.5 |
| 20260502041031 | 12 | 110 | 6.4 | 16.1 | 0.00 | 0.00 | 0.00 | 46 | 1017.6 |
| 20260502040528 | 12 | 111 | 11.3 | 17.7 | 0.00 | 0.00 | 0.00 | 45 | 1017.6 |
| 20260502040025 | 12 | 83 | 6.4 | 8.0 | 0.00 | 0.00 | 0.00 | 47 | 1017.6 |
| 20260502035521 | 13 | 87 | 4.8 | 8.0 | 0.00 | 0.00 | 0.00 | 45 | 1017.4 |
| 20260502035019 | 13 | 108 | 8.0 | 8.0 | 0.00 | 0.00 | 0.00 | 45 | 1017.4 |
| 20260502034516 | 13 | 95 | 8.0 | 9.7 | 0.00 | 0.00 | 0.00 | 44 | 1017.4 |
| 20260502034015 | 13 | 69 | 4.8 | 9.7 | 0.00 | 0.00 | 0.00 | 43 | 1017.2 |
| 20260502033513 | 13 | 90 | 6.4 | 9.7 | 0.00 | 0.00 | 0.00 | 44 | 1017.2 |
| 20260502033010 | 13 | 105 | 6.4 | 17.7 | 0.00 | 0.00 | 0.00 | 45 | 1017.2 |
| 20260502032505 | 14 | 97 | 4.8 | 11.3 | 0.00 | 0.00 | 0.00 | 42 | 1017.1 |
| 20260502032003 | 14 | 98 | 8.0 | 9.7 | 0.00 | 0.00 | 0.00 | 43 | 1016.9 |
| 20260502031500 | 15 | 117 | 8.0 | 12.9 | 0.00 | 0.00 | 0.00 | 42 | 1017.0 |
| 20260502030958 | 15 | 103 | 9.7 | 14.5 | 0.00 | 0.00 | 0.00 | 40 | 1016.8 |
| 20260502030456 | 15 | 112 | 8.0 | 11.3 | 0.00 | 0.00 | 0.00 | 40 | 1016.9 |
| 20260502025954 | 15 | 74 | 4.8 | 11.3 | 0.00 | 0.00 | 0.00 | 42 | 1016.7 |
| 20260502025451 | 16 | 119 | 8.0 | 11.3 | 0.00 | 0.00 | 0.00 | 40 | 1016.7 |
| 20260502024949 | 16 | 114 | 8.0 | 11.3 | 0.00 | 0.00 | 0.00 | 39 | 1016.7 |
| 20260502024447 | 16 | 124 | 6.4 | 9.7 | 0.00 | 0.00 | 0.00 | 40 | 1016.6 |
| 20260502023945 | 16 | 110 | 6.4 | 8.0 | 0.00 | 0.00 | 0.00 | 41 | 1016.6 |
| 20260502023442 | 17 | 105 | 8.0 | 9.7 | 0.00 | 0.00 | 0.00 | 38 | 1016.6 |
| 20260502022939 | 16 | 106 | 4.8 | 4.8 | 0.00 | 0.00 | 0.00 | 40 | 1016.7 |
| 20260502022435 | 17 | 118 | 4.8 | 6.4 | 0.00 | 0.00 | 0.00 | 38 | 1016.6 |
| 20260502021932 | 17 | 83 | 4.8 | 6.4 | 0.00 | 0.00 | 0.00 | 37 | 1016.5 |
| 20260502021430 | 18 | 106 | 4.8 | 4.8 | 0.00 | 0.00 | 0.00 | 35 | 1016.1 |
| 20260502020927 | 20 | 99 | 0.0 | 1.6 | 0.00 | 0.00 | 0.00 | 32 | 1016.4 |
| 20260502020425 | 20 | 278 | 0.0 | 0.0 | 0.00 | 0.00 | 0.00 | 31 | 1016.2 |
| 20260502015921 | 21 | 278 | 0.0 | 0.0 | 0.00 | 0.00 | 0.00 | 30 | 1016.5 |
| 20260502015419 | 21 | 289 | 1.6 | 4.8 | 0.00 | 0.00 | 0.00 | 27 | 1016.5 |
| 20260502014915 | 21 | 289 | 4.8 | 8.0 | 0.00 | 0.00 | 0.00 | 26 | 1016.1 |
| 20260502014413 | 22 | 270 | 3.2 | 6.4 | 0.00 | 0.00 | 0.00 | 26 | 1016.5 |
| 20260502013909 | 22 | 252 | 4.8 | 4.8 | 0.00 | 0.00 | 0.00 | 26 | 1016.6 |
| 20260502013404 | 22 | 270 | 3.2 | 4.8 | 0.00 | 0.00 | 0.00 | 26 | 1016.5 |
| 20260502012901 | 22 | 296 | 4.8 | 6.4 | 0.00 | 0.00 | 0.00 | 26 | 1016.6 |
| 20260502012359 | 22 | 281 | 4.8 | 6.4 | 0.00 | 0.00 | 0.00 | 25 | 1016.6 |
| 20260502011856 | 23 | 289 | 4.8 | 4.8 | 0.00 | 0.00 | 0.00 | 25 | 1016.6 |
| 20260502011352 | 23 | 260 | 0.0 | 4.8 | 0.00 | 0.00 | 0.00 | 24 | 1016.6 |
| 20260502010849 | 23 | 286 | 0.0 | 6.4 | 0.00 | 0.00 | 0.00 | 24 | 1016.7 |
| 20260502010346 | 23 | 261 | 0.0 | 3.2 | 0.00 | 0.00 | 0.00 | 25 | 1016.7 |
| 20260502005843 | 23 | 335 | 6.4 | 6.4 | 0.00 | 0.00 | 0.00 | 25 | 1016.7 |
| 20260502005341 | 23 | 346 | 4.8 | 4.8 | 0.00 | 0.00 | 0.00 | 27 | 1016.7 |
| 20260502004838 | 22 | 345 | 3.2 | 8.0 | 0.00 | 0.00 | 0.00 | 25 | 1016.6 |
| 20260502004333 | 23 | 279 | 3.2 | 6.4 | 0.00 | 0.00 | 0.00 | 27 | 1016.5 |
| 20260502003832 | 23 | 315 | 6.4 | 8.0 | 0.00 | 0.00 | 0.00 | 26 | 1016.9 |
| 20260502003328 | 23 | 225 | 3.2 | 4.8 | 0.00 | 0.00 | 0.00 | 26 | 1016.6 |
| 20260502002825 | 23 | 289 | 3.2 | 6.4 | 0.00 | 0.00 | 0.00 | 27 | 1016.7 |
| 20260502002322 | 22 | 123 | 0.0 | 8.0 | 0.00 | 0.00 | 0.00 | 25 | 1016.8 |
| 20260502001819 | 22 | 326 | 4.8 | 6.4 | 0.00 | 0.00 | 0.00 | 25 | 1016.9 |
| 20260502001317 | 23 | 191 | 6.4 | 8.0 | 0.00 | 0.00 | 0.00 | 24 | 1016.7 |
| 20260502000814 | 23 | 232 | 6.4 | 6.4 | 0.00 | 0.00 | 0.00 | 25 | 1016.8 |
| 20260502000312 | 23 | 355 | 0.0 | 3.2 | 0.00 | 0.00 | 0.00 | 28 | 1016.7 |
| 20260501235808 | 22 | 77 | 3.2 | 6.4 | 0.00 | 0.00 | 0.00 | 25 | 1016.8 |
| 20260501235305 | 22 | 283 | 1.6 | 4.8 | 0.00 | 0.00 | 0.00 | 24 | 1016.9 |
| 20260501234759 | 22 | 352 | 0.0 | 6.4 | 0.00 | 0.00 | 0.00 | 26 | 1016.9 |